Voltar ao catálogo

BREEZE-KM R/B

AtivoPO
NORAD 39764·ROCKET BODY·🇷🇺 Russia

Lançado May 23, 2014 de Plesetsk Cosmodrome

Loading…

Próximas Passagens (próximas 24 horas)

TLE

AtualizadoSource: Space-Track

Época: Sep 14, 2026, 04:21 UTC

1 39764U 14028D   26257.18151737  .00000042  00000-0  10856-3 0  9998
2 39764  82.4441 188.8550 0229509 145.7475 215.8677 12.83552881576871

Acompanhe BREEZE-KM R/B em tempo real com AllMySat

Download on the App Store